Location: Gwatt
(46.7204°N, 7.6223°E)
Time: 19:27:02
(UTC+00:00)

Transit 2A - Pass Details

Date: 28 January 2021
Orbit: 600 x 958 km, 66.7° (Epoch: 26 February)

Event Time Altitude Azimuth Distance (km) Brightness Sun altitude
Rises 08:52:40 0° 332° (NNW) 3,084 8.5 14.8°
Reaches altitude 10° 08:56:13 10° 358° (N) 2,091 7.9 15.2°
Maximum altitude 08:58:40 14° 30° (NNE) 1,794 7.8 15.4°
Drops below altitude 10° 09:01:02 10° 62° (ENE) 2,008 8.4 15.7°
Sets 09:04:18 0° 88° (E) 2,873 9.5 16.0°
